Flag for Germany Weather past 2 weeks in Uelzen, Lower Saxony, Germany

Now
52 °F

Passing clouds.


Feels Like: 49 °F
Forecast: 47 / 56 °F
Wind: 7 mph from Southwest

Location: Fassberg

Current Time: Oct 23, 2014 at 8:51:23 PM

Latest Report: Oct 23, 2014 at 8:20 PM


Visibility: N/A

Pressure: 30.18 "Hg

Humidity: 82%

Dew point: 46 °F

Location of UelzenLocation

Historic Weather in Uelzen — Graph

°F

Uelzen temperature yesterday

Maximum temperature yesterday: 57 °F (at 4:20 PM)
Minimum temperature yesterday: 46 °F (at 2:20 AM)
Average temperature yesterday: 50 °F

Past Weeks' High & Low Weather Summary

 TemperatureHumidityPressure
High73 °F (Oct 19, 3:20 PM)100% (Oct 11, 3:20 AM)30.18 "Hg (Oct 11, 3:20 AM)
Low45 °F (Oct 14, 7:20 AM)49% (Oct 14, 3:20 PM)29.42 "Hg (Oct 21, 6:20 PM)
Average55 °F87%29.84 "Hg
* Reported Oct 8 7:20 PM — Oct 23 7:20 PM, Uelzen, Weather by CustomWeather, © 2014

Note: Actual official high and low records may vary slightly from our data, if they occured in-between our weather recording intervals... More about our weather records

Advertising

Uelzen weather history for previous 24 hours

 ConditionsComfort  
Time TempWeatherWind HumidityBarometerVisibility
7:20 PM
Oct 23
52 °FPassing clouds.6 mph82%30.18 "HgN/A
6:20 PM54 °FPartly sunny.6 mph77%30.18 "HgN/A
5:20 PM55 °FPartly sunny.6 mph67%30.18 "HgN/A
4:20 PM55 °FPartly sunny.7 mph67%30.18 "HgN/A
3:20 PM55 °FBroken clouds.7 mph67%30.18 "HgN/A
2:20 PM57 °FBroken clouds.8 mph59%30.18 "HgN/A
1:20 PM55 °FBroken clouds.9 mph63%30.18 "HgN/A
12:20 PM55 °FBroken clouds.8 mph63%30.18 "HgN/A
11:20 AM52 °FBroken clouds.6 mph72%30.18 "HgN/A
10:20 AM50 °FBroken clouds.7 mph76%30.18 "HgN/A
9:20 AM48 °FBroken clouds.6 mph82%30.15 "HgN/A
8:20 AM48 °FPassing clouds.3 mph82%30.15 "HgN/A
7:20 AM48 °FPassing clouds.5 mph82%30.12 "HgN/A
6:20 AM48 °FPassing clouds.6 mph82%30.12 "Hg5 mi
5:20 AM50 °FPartly cloudy.8 mph82%30.09 "Hg5 mi
4:20 AM50 °FPassing clouds.8 mph82%30.09 "Hg5 mi
3:20 AM50 °FPassing clouds.10 mph82%30.07 "Hg5 mi
2:20 AM50 °FPassing clouds.10 mph88%30.07 "Hg5 mi
1:20 AM50 °FPassing clouds.10 mph88%30.04 "Hg5 mi
12:20 AM50 °FPartly cloudy.12 mph88%30.04 "Hg5 mi
11:20 PM
Oct 22
50 °FPassing clouds.10 mph88%30.04 "HgN/A
10:20 PM52 °FPassing clouds.13 mph82%30.01 "HgN/A
9:20 PM52 °FPassing clouds.16 mph82%29.98 "HgN/A
8:20 PM52 °FPassing clouds.14 mph88%29.95 "HgN/A
Weather by CustomWeather, © 2014

See weather overviewHow to use our weather pages